Location: 22
(39.7117°N, 89.5929°W)
Time: 07:18:42
(UTC-05:00)

A-11 Canister half - Pass Details

Date: 29 January 2023
Orbit: 1526 x 1682 km, 47.3° (Epoch: 01 April)

Event Time Altitude Azimuth Distance (km) Brightness Sun altitude
Rises 06:29:09 0° 225° (SW) 4,666 11.2 -8.1°
Reaches altitude 10° 06:32:11 10° 223° (SW) 3,684 10.8 -7.5°
Maximum altitude 06:41:21 68° 143° (SE) 1,633 9.4 -5.8°
Drops below altitude 10° 06:50:41 10° 63° (ENE) 3,749 11.7 -4.1°
Sets 06:53:48 0° 61° (ENE) 4,753 12.2 -3.6°
